Tracking 19717 objects as of 24-Jun-2019
HD Live streaming from Space Station
objects crossing your sky now

DELTA 1 DEB

Track DELTA 1 DEB now!
10-day predictions


NORAD ID: 2976
Int'l Code: 1967-036C
Perigee: 1,264.9 km
Apogee: 1,416.3 km
Inclination: 102.1 °
Period: 112.3 minutes
Semi major axis: 7711 km
RCS: 0.0638 m2 (small)
Launch date: April 20, 1967
Source: United States (US)
Launch site: AIR FORCE WESTERN TEST RANGE (AFWTR)

Note: This is SATELLITE DEBRIS
aabbcc
Your satellite tracking list
Your tracking list is empty




NASA's NSSDC Master Catalog

Two Line Element Set (TLE):
1  2976U 67036C   19174.74217611 -.00000010 +00000-0 +17171-3 0  9999
2  2976 102.1051 095.3890 0098123 172.2722 244.2767 12.81997161440876
Source of the keplerian elements: AFSPC